Location: Aalen
(48.8330°N, 10.1000°E)
Time: 07:26:11
(UTC+02:00)

Transit 2A - Pass Details

Date: 05 August 2021
Orbit: 594 x 964 km, 66.7° (Epoch: 24 September)

Event Time Altitude Azimuth Distance (km) Brightness Sun altitude
Rises 17:04:53 0° 306° (NW) 3,331 9.7 35.5°
Reaches altitude 10° 17:09:09 10° 275° (W) 2,488 9.8 34.8°
Maximum altitude 17:10:54 11° 257° (WSW) 2,420 10.1 34.5°
Drops below altitude 10° 17:12:41 10° 239° (WSW) 2,551 10.0 34.3°
Sets 17:17:16 0° 208° (SSW) 3,560 10.0 33.5°
